Home > Time Zones > World Clock > Weather > Chad > Sarh > Past weeks

Flag for Chad Weather past 2 weeks in Sarh, Chad

Now
66 °F

Clear.


Feels Like: 66 °F
Forecast: 72 / 96 °F
Wind: No wind

Location: Sarh Airport

Current Time: Dec 21, 2014 at 3:21:46 AM

Latest Report: Dec 21, 2014 at 3:00 AM


Visibility: 10 mi

Pressure: 29.89 "Hg

Humidity: 49%

Dew point: 46 °F

Location of SarhLocation

Historic Weather in Sarh — Graph

°F

Sarh temperature yesterday

Maximum temperature yesterday: 95 °F (at 2:00 PM)
Minimum temperature yesterday: 66 °F (at 5:00 AM)
Average temperature yesterday: 78 °F

Past Weeks' High & Low Weather Summary

 TemperatureHumidityPressure
High100 °F (Dec 6, 1:00 PM)100% (Dec 9, 12:00 PM)30.01 "Hg (Dec 9, 12:00 PM)
Low63 °F (Dec 16, 6:00 AM)11% (Dec 20, 3:00 PM)29.74 "Hg (Dec 10, 4:00 PM)
Average80 °F46%29.88 "Hg
* Reported Dec 6 2:00 AM — Dec 21 2:00 AM, Sarh, Weather by CustomWeather, © 2014

Note: Actual official high and low records may vary slightly from our data, if they occured in-between our weather recording intervals... More about our weather records

Advertising

Sarh weather history for previous 24 hours

 ConditionsComfort  
Time TempWeatherWind HumidityBarometerVisibility
2:00 AM
Dec 21
68 °FMild.6 mph49%29.92 "HgN/A
1:00 AM66 °FMild.5 mph60%29.98 "HgN/A
10:00 PM
Dec 20
70 °FMild.No wind53%29.92 "HgN/A
9:00 PM73 °FMild.No wind61%29.92 "HgN/A
8:00 PM77 °FWarm.No wind47%29.89 "HgN/A
7:00 PM79 °FWarm.No wind45%29.89 "HgN/A
6:00 PM84 °FClear.No wind31%29.89 "Hg10 mi
5:00 PM90 °FSunny.3 mph18%29.86 "Hg10 mi
4:00 PM93 °FSunny.7 mph17%29.86 "Hg10 mi
3:00 PM95 °FSunny.7 mph11%29.89 "Hg10 mi
2:00 PM95 °FSunny.5 mph14%29.89 "Hg10 mi
1:00 PM93 °FSunny.5 mph15%29.92 "Hg10 mi
12:00 PM91 °FHot.5 mph18%29.95 "HgN/A
11:00 AM88 °FPleasantly warm.5 mph18%29.98 "HgN/A
10:00 AM82 °FPleasantly warm.3 mph23%29.98 "HgN/A
9:00 AM77 °FPleasantly warm.7 mph28%29.98 "HgN/A
8:00 AM72 °FMild.5 mph36%30.01 "HgN/A
7:00 AM68 °FSunny.7 mph33%29.95 "Hg10 mi
6:00 AM66 °FSunny.7 mph37%29.92 "Hg10 mi
5:00 AM66 °FClear.3 mph40%29.92 "Hg10 mi
4:00 AM68 °FClear.7 mphN/AN/A10 mi
3:00 AM68 °FClear.5 mph46%29.92 "Hg10 mi
Weather by CustomWeather, © 2014

See weather overviewHow to use our weather pages